Weather History for EBBE - December, 2012

Change the Weather History Date:

Sunday, December 9, 2012

  Actual Average Record
Temperature  
Mean Temperature 36 °F -  
Max Temperature 43 °F 39 °F - ()
Min Temperature 28 °F 34 °F - ()
Degree Days  
Heating Degree Days 30    
Moisture  
Dew Point 35 °F    
Average Humidity 91    
Maximum Humidity 100    
Minimum Humidity 82    
Precipitation  
Precipitation 0.02 in - - ()
Sea Level Pressure  
Sea Level Pressure 30.00 in    
Wind  
Wind Speed 15 mph ()    
Max Wind Speed 21 mph    
Max Gust Speed 36 mph    
Visibility 4.9 miles    
Events Rain , Snow    
T = Trace of Precipitation, MM = Missing Value Source: Averaged Metar Reports

Daily Weather History Graph

Daily Weather History Graph

Search for Another Location

Airport or City:

Trip Planner

Search our weather history database for the weather conditions in past years. The results will help you decide how hot, cold, wet, or windy it might be!

Date:

Astronomy

Dec. 09, 2012 Rise Set
Actual Time 8:31 AM CET 4:35 PM CET
Civil Twilight 7:52 AM CET 5:14 PM CET
Nautical Twilight 7:10 AM CET 5:56 PM CET
Astronomical Twilight 6:30 AM CET 6:36 PM CET
Moon 3:23 AM CET (12/9) 1:52 PM CET (12/9)
Length of Visible Light 9h 22m
Length of Day
8h 04m
Waning Crescent, 21% of the Moon is Illuminated
Dec 9
Waning Crescent
Dec 13
New
Dec 20
First Quarter
Dec 28
Full
Jan 5
Last Quarter

Hourly Weather History & Observations

Time (CET) Temp. Windchill Dew Point Humidity Pressure Visibility Wind Dir Wind Speed Gust Speed Precip Events Conditions
12:25 AM 30.2 °F 19.8 °F 28.4 °F 93% 30.24 in 3.7 mi SSW 13.8 mph - N/A   Mostly Cloudy
1:00 AM 31 °F - 28 °F 86% 30.28 in 4 mi SSW 13.4 mph - -   Mostly Cloudy
1:25 AM 32.0 °F 23.0 °F 28.4 °F 87% 30.24 in 4.3 mi SW 11.5 mph - N/A   Overcast
2:14 AM 32.0 °F 21.6 °F 28.4 °F 87% 30.24 in 3.7 mi SSW 15.0 mph - N/A Snow Light Snow
2:25 AM 32.0 °F 21.6 °F 28.4 °F 87% 30.24 in 3.7 mi SSW 15.0 mph - N/A Snow Light Snow
3:01 AM 32.0 °F 21.6 °F 28.4 °F 87% 30.21 in 3.1 mi SSW 15.0 mph - N/A Rain , Snow Light Rain
3:25 AM 32.0 °F 21.2 °F 28.4 °F 87% 30.21 in 3.7 mi SW 16.1 mph - N/A Rain , Snow Light Rain
3:58 AM 32.0 °F 21.6 °F 30.2 °F 93% 30.18 in 3.7 mi SW 15.0 mph - N/A Snow Light Snow Grains
4:00 AM 32 °F - 29 °F 86% 30.23 in 4 mi SSW 15.7 mph - - Snow Light Snow
4:04 AM 32.0 °F 21.6 °F 30.2 °F 93% 30.18 in 4.3 mi SW 15.0 mph - N/A Rain , Snow Light Rain
4:10 AM 32.0 °F 21.2 °F 30.2 °F 93% 30.18 in 5.0 mi SW 16.1 mph - N/A   Mostly Cloudy
4:25 AM 32.0 °F 22.1 °F 30.2 °F 93% 30.18 in 5.0 mi SW 13.8 mph - N/A   Overcast
5:25 AM 33.8 °F 22.8 °F 30.2 °F 87% 30.15 in 5.6 mi SW 18.4 mph - N/A Rain Light Rain
5:50 AM 33.8 °F 22.5 °F 30.2 °F 87% 30.12 in 5.0 mi SW 19.6 mph - N/A   Drizzle
5:57 AM 33.8 °F 22.5 °F 30.2 °F 87% 30.12 in 4.3 mi SW 19.6 mph - N/A   Drizzle
6:03 AM 33.8 °F 22.5 °F 30.2 °F 87% 30.12 in 3.7 mi SW 19.6 mph - N/A Rain Rain
6:25 AM 33.8 °F 22.5 °F 30.2 °F 87% 30.12 in 3.7 mi SW 19.6 mph - N/A Rain Rain
6:45 AM 33.8 °F 22.8 °F 32.0 °F 93% 30.12 in - SW 18.4 mph - N/A Rain Rain
6:53 AM 33.8 °F 22.5 °F 32.0 °F 93% 30.12 in 3.1 mi SW 19.6 mph - N/A Rain Light Rain
7:00 AM 34 °F - 32 °F 88% 30.14 in 3 mi SW 20.1 mph - - Rain Light Rain
7:19 AM 33.8 °F 22.5 °F 32.0 °F 93% 30.12 in 3.1 mi SW 19.6 mph - N/A Rain Light Rain
7:25 AM 33.8 °F 23.2 °F 32.0 °F 93% 30.09 in 2.8 mi SW 17.3 mph - N/A   Mostly Cloudy
7:31 AM 33.8 °F 23.2 °F 32.0 °F 93% 30.09 in - SW 17.3 mph - N/A   Mostly Cloudy
8:25 AM 35.6 °F 24.8 °F 33.8 °F 93% 30.06 in 2.8 mi SW 19.6 mph - N/A   Mostly Cloudy
8:34 AM 35.6 °F 24.5 °F 33.8 °F 93% 30.06 in 3.1 mi SW 20.7 mph - N/A   Mostly Cloudy
8:59 AM 35.6 °F 24.8 °F 35.6 °F 100% 30.06 in 3.7 mi SW 19.6 mph - N/A   Mostly Cloudy
9:25 AM 35.6 °F 25.5 °F 35.6 °F 100% 30.06 in - SW 17.3 mph - N/A   Mostly Cloudy
10:00 AM 37 °F - 35 °F 92% 30.09 in 4 mi SW 17.9 mph - -   Clear
10:25 AM 37.4 °F 27.5 °F 35.6 °F 93% 30.04 in 1.6 mi SW 18.4 mph - N/A   Overcast
11:09 AM 37.4 °F 27.8 °F 37.4 °F 100% 30.04 in 1.4 mi SW 17.3 mph - N/A Rain Light Rain
11:25 AM 37.4 °F 28.2 °F 37.4 °F 100% 30.04 in 1.6 mi SW 16.1 mph - N/A Rain Light Rain Showers
11:49 AM 39.2 °F 30.5 °F 37.4 °F 93% 30.01 in 3.7 mi WSW 16.1 mph - N/A   Overcast
12:25 PM 39.2 °F 30.2 °F 39.2 °F 100% 29.98 in 5.0 mi SW 17.3 mph - N/A   Overcast
12:39 PM 39.2 °F 30.2 °F 39.2 °F 100% 29.98 in 5.6 mi WSW 17.3 mph - N/A   Mostly Cloudy
12:54 PM 41.0 °F 32.5 °F 39.2 °F 93% 29.98 in 6.2 mi WSW 17.3 mph - N/A   Mostly Cloudy
1:00 PM 40 °F - 39 °F 94% 30.00 in 6 mi WSW 17.9 mph - -   Clear
1:00 PM 41.0 °F 32.2 °F 39.2 °F 93% 29.98 in 6.2 mi WSW 18.4 mph - N/A   Mostly Cloudy
1:14 PM 41.0 °F 32.5 °F 39.2 °F 93% 29.95 in 5.6 mi WSW 17.3 mph - N/A   Overcast
1:25 PM 41.0 °F 32.5 °F 39.2 °F 93% 29.95 in 4.3 mi WSW 17.3 mph - N/A   Overcast
2:14 PM 41.0 °F 32.2 °F 39.2 °F 93% 29.95 in 6.2 mi WSW 18.4 mph - N/A   Mostly Cloudy
2:25 PM 41.0 °F 32.5 °F 41.0 °F 100% 29.92 in 6.2 mi WSW 17.3 mph - N/A   Mostly Cloudy
3:25 PM 42.8 °F 35.8 °F 41.0 °F 93% 29.92 in 3.1 mi WSW 13.8 mph - N/A   Drizzle
4:00 PM 42 °F - 41 °F 94% 29.93 in 4 mi WSW 13.4 mph - - Rain Light Rain Showers
4:25 PM 42.8 °F 35.4 °F 41.0 °F 93% 29.89 in 3.7 mi WSW 15.0 mph - N/A Rain Light Rain Showers
5:25 PM 42.8 °F 35.8 °F 41.0 °F 93% 29.89 in 6.2 mi WSW 13.8 mph - N/A   Mostly Cloudy
5:28 PM 42.8 °F 35.8 °F 41.0 °F 93% 29.89 in 6.2 mi WSW 13.8 mph - N/A   Mostly Cloudy
5:43 PM 42.8 °F 35.4 °F 41.0 °F 93% 29.86 in 6.2 mi WSW 15.0 mph - N/A   Mostly Cloudy
6:25 PM 42.8 °F 34.8 °F 41.0 °F 93% 29.86 in 6.2 mi WSW 17.3 mph - N/A Rain Light Rain Showers
6:38 PM 42.8 °F 34.5 °F 41.0 °F 93% 29.86 in 6.2 mi WSW 18.4 mph - N/A   Mostly Cloudy
6:53 PM 42.8 °F 34.5 °F 41.0 °F 93% 29.83 in 6.2 mi WSW 18.4 mph - N/A   Mostly Cloudy
7:00 PM 43 °F - 40 °F 86% 29.87 in 19 mi WSW 17.9 mph - -   Unknown Precipitation
7:13 PM 42.8 °F 34.5 °F 39.2 °F 87% 29.83 in 6.2 mi WSW 18.4 mph - N/A   Mostly Cloudy
7:19 PM 42.8 °F 34.3 °F 39.2 °F 87% 29.83 in 6.2 mi WSW 19.6 mph - N/A   Mostly Cloudy
7:25 PM 42.8 °F 34.5 °F 39.2 °F 87% 29.83 in 6.2 mi WSW 18.4 mph - N/A   Mostly Cloudy
7:33 PM 42.8 °F 36.2 °F 39.2 °F 87% 29.83 in 6.2 mi NNW 12.7 mph - N/A   Drizzle
7:48 PM 41.0 °F 33.5 °F 39.2 °F 93% 29.86 in 3.1 mi WNW 13.8 mph 28.8 mph N/A Rain Rain
7:56 PM 41.0 °F 33.9 °F 39.2 °F 93% 29.86 in - West 12.7 mph - N/A Rain Rain
8:04 PM 41.0 °F 33.5 °F 37.4 °F 87% 29.86 in - West 13.8 mph - N/A Rain Rain
8:10 PM 41.0 °F 33.5 °F 37.4 °F 87% 29.86 in 4.3 mi West 13.8 mph - N/A Rain Rain
8:16 PM 41.0 °F 33.1 °F 37.4 °F 87% 29.86 in 6.2 mi West 15.0 mph - N/A Rain Light Rain Showers
8:25 PM 41.0 °F 33.5 °F 37.4 °F 87% 29.86 in 6.2 mi West 13.8 mph - N/A Rain Light Rain Showers
9:25 PM 41.0 °F 32.5 °F 37.4 °F 87% 29.83 in 6.2 mi West 17.3 mph - N/A Rain Light Rain Showers
10:00 PM 41 °F - 37 °F 82% 29.86 in 14 mi WSW 11.2 mph - - Rain Rain
10:25 PM 41.0 °F 33.9 °F 37.4 °F 87% 29.83 in 6.2 mi WSW 12.7 mph - N/A   Mostly Cloudy
11:11 PM 37.4 °F 28.2 °F 33.8 °F 87% 29.86 in 4.3 mi NW 16.1 mph 34.5 mph N/A   Drizzle
11:17 PM 37.4 °F 28.5 °F 33.8 °F 87% 29.86 in - NW 15.0 mph - N/A Rain Rain
11:25 PM 37.4 °F 29.3 °F 33.8 °F 87% 29.86 in 2.2 mi NW 12.7 mph - N/A Rain Rain
11:29 PM 37.4 °F 29.3 °F 35.6 °F 93% 29.86 in - NW 12.7 mph 24.2 mph N/A Rain Light Rain
11:35 PM 37.4 °F 28.5 °F 35.6 °F 93% 29.86 in 3.7 mi NW 15.0 mph - N/A   Heavy Drizzle
11:41 PM 37.4 °F 27.8 °F 35.6 °F 93% 29.86 in - WNW 17.3 mph - N/A Rain Light Rain
11:48 PM 37.4 °F 28.2 °F 35.6 °F 93% 29.86 in 3.7 mi WNW 16.1 mph 35.7 mph N/A Rain Light Rain